Location: Hains Lake
(37.8540°N, 99.8578°W)
Time: 05:06:56
(UTC+00:00)

Tiros 1 despin weight - Pass Details

Date: 19 April 2021
Orbit: 593 x 642 km, 48.2° (Epoch: 07 May)

Event Time Altitude Azimuth Distance (km) Brightness Sun altitude
Rises 14:58:45 0° 295° (WNW) 2,885 ? 34.5°
Reaches altitude 10° 15:01:32 10° 311° (NW) 1,970 ? 35.0°
Maximum altitude 15:05:02 21° 2° (N) 1,358 ? 35.7°
Drops below altitude 10° 15:08:29 10° 53° (NE) 1,946 ? 36.3°
Sets 15:11:13 0° 69° (ENE) 2,841 ? 36.8°
